DW4604 Weather Reports


time (UTC)temp
C
wind
direction
speed
KPH
gust
KPH
rain 1hr
cm
rain 24hr
cm
rain mn
cm
humidity
%
barometer
mb
20260902203951 13 0 0.0 0.0 0.00 0.00 0.00 91 1018.3
20260902202452 13 0 0.0 0.0 0.00 0.00 0.00 91 1018.3
20260902201451 13 0 0.0 0.0 0.00 0.00 0.00 90 1018.3
20260902195951 14 0 0.0 0.0 0.00 0.00 0.00 90 1018.3
20260902195451 14 0 0.0 0.0 0.00 0.00 0.00 90 1018.3
20260902194451 14 0 0.0 0.0 0.00 0.00 0.00 90 1018.3
20260902193451 14 0 0.0 0.0 0.00 0.00 0.00 89 1018.4
20260902192951 14 0 0.0 0.0 0.00 0.00 0.00 89 1018.4
20260902192452 15 0 0.0 0.0 0.00 0.00 0.00 89 1018.4
20260902191951 15 0 0.0 0.0 0.00 0.00 0.00 89 1018.4
20260902191452 15 0 0.0 0.0 0.00 0.00 0.00 88 1018.5
20260902190952 15 0 0.0 0.0 0.00 0.00 0.00 88 1018.5
20260902190452 15 0 0.0 0.0 0.00 0.00 0.00 88 1018.4
20260902185951 15 0 0.0 0.0 0.00 0.00 0.00 88 1018.4
20260902185451 15 0 0.0 0.0 0.00 0.00 0.00 88 1018.3
20260902184952 15 0 0.0 0.0 0.00 0.00 0.00 87 1018.4
20260902184452 15 0 0.0 0.0 0.00 0.00 0.00 87 1018.4
20260902183951 15 0 0.0 0.0 0.00 0.00 0.00 88 1018.4
20260902183452 15 0 0.0 0.0 0.00 0.00 0.00 88 1018.4
20260902182952 15 0 0.0 0.0 0.00 0.00 0.00 87 1018.4
20260902182452 15 0 0.0 0.0 0.00 0.00 0.00 87 1018.4
20260902181951 16 0 0.0 0.0 0.00 0.00 0.00 87 1018.4
20260902181451 16 0 0.0 0.0 0.00 0.00 0.00 86 1018.3
20260902180451 16 0 0.0 0.0 0.00 0.00 0.00 85 1018.3
20260902175952 16 0 0.0 0.0 0.00 0.00 0.00 85 1018.2
20260902175452 16 0 0.0 0.0 0.00 0.00 0.00 84 1018.2
20260902174452 17 0 0.0 0.0 0.00 0.00 0.00 83 1018.2
20260902173952 17 0 0.0 0.0 0.00 0.00 0.00 82 1018.2
20260902173452 17 0 0.0 0.0 0.00 0.00 0.00 82 1018.1
20260902172952 17 0 0.0 0.0 0.00 0.00 0.00 81 1018.1
20260902171952 18 0 0.0 0.0 0.00 0.00 0.00 80 1018.1
20260902171452 18 0 0.0 0.0 0.00 0.00 0.00 79 1018.0
20260902170952 18 0 0.0 0.0 0.00 0.00 0.00 79 1018.0
20260902170452 18 0 0.0 0.0 0.00 0.00 0.00 78 1018.0
20260902165953 18 0 0.0 0.0 0.00 0.00 0.00 78 1018.0
20260902165452 18 0 0.0 0.0 0.00 0.00 0.00 78 1018.0
20260902164952 18 0 0.0 0.0 0.00 0.00 0.00 77 1018.0
20260902164452 18 0 0.0 0.0 0.00 0.00 0.00 77 1017.9
20260902163952 19 0 0.0 0.0 0.00 0.00 0.00 77 1017.9
20260902163452 19 0 0.0 0.0 0.00 0.00 0.00 77 1018.1
20260902162952 19 0 0.0 0.0 0.00 0.00 0.00 76 1018.0
20260902161952 20 0 0.0 0.0 0.00 0.00 0.00 75 1018.0
20260902161453 20 0 0.0 0.0 0.00 0.00 0.00 75 1018.0
20260902160953 20 0 0.0 0.0 0.00 0.00 0.00 74 1018.0
20260902160452 20 0 0.0 0.0 0.00 0.00 0.00 74 1018.1
20260902155952 20 0 0.0 0.0 0.00 0.00 0.00 73 1018.1
20260902155452 21 0 0.0 0.0 0.00 0.00 0.00 73 1018.0
20260902154452 21 0 0.0 0.0 0.00 0.00 0.00 69 1018.0
20260902153453 21 0 0.0 0.0 0.00 0.00 0.00 66 1018.0
20260902152954 22 0 0.0 0.0 0.00 0.00 0.00 66 1018.1
20260902152453 22 0 0.0 0.0 0.00 0.00 0.00 63 1018.1
20260902151953 22 0 0.0 0.0 0.00 0.00 0.00 66 1018.2
20260902151459 22 0 0.0 0.0 0.00 0.00 0.00 64 1018.2
20260902150952 22 0 0.0 0.0 0.00 0.00 0.00 65 1018.1
20260902150453 22 0 0.0 0.0 0.00 0.00 0.00 64 1018.2
20260902145953 22 0 0.0 0.0 0.00 0.00 0.00 63 1018.2
20260902145453 22 0 0.0 0.0 0.00 0.00 0.00 63 1018.2
20260902144953 22 0 0.0 0.0 0.00 0.00 0.00 64 1018.3
20260902144453 22 0 0.0 0.0 0.00 0.00 0.00 63 1018.4
20260902143952 22 0 0.0 0.0 0.00 0.00 0.00 64 1018.3
20260902142952 22 0 0.0 0.0 0.00 0.00 0.00 62 1018.3
20260902141952 23 0 0.0 0.0 0.00 0.00 0.00 62 1018.3
20260902141452 23 0 0.0 0.0 0.00 0.00 0.00 61 1018.3
20260902140952 23 0 0.0 0.0 0.00 0.00 0.00 61 1018.4
20260902140453 23 0 0.0 0.0 0.00 0.00 0.00 61 1018.4
20260902135953 22 0 0.0 0.0 0.00 0.00 0.00 62 1018.4
20260902135453 23 0 0.0 0.0 0.00 0.00 0.00 62 1018.5
20260902134952 23 0 0.0 0.0 0.00 0.00 0.00 62 1018.5
20260902134453 24 0 0.0 0.0 0.00 0.00 0.00 58 1018.6
20260902133953 24 0 0.0 0.0 0.00 0.00 0.00 60 1018.5
20260902133453 24 0 0.0 0.0 0.00 0.00 0.00 61 1018.5
20260902132953 24 0 0.0 0.0 0.00 0.00 0.00 60 1018.5
20260902132453 23 0 0.0 0.0 0.00 0.00 0.00 61 1018.6
20260902131953 23 0 0.0 0.0 0.00 0.00 0.00 64 1018.6
20260902131453 24 0 0.0 0.0 0.00 0.00 0.00 59 1018.6
20260902130953 24 0 0.0 0.0 0.00 0.00 0.00 60 1018.7
20260902130453 25 0 0.0 0.0 0.00 0.00 0.00 60 1018.6
20260902125452 23 0 0.0 0.0 0.00 0.00 0.00 62 1018.8
20260902124952 23 0 0.0 0.0 0.00 0.00 0.00 63 1018.7
20260902124453 24 0 0.0 0.0 0.00 0.00 0.00 62 1018.8
20260902122952 22 0 0.0 0.0 0.00 0.00 0.00 67 1019.0
20260902121953 24 0 0.0 0.0 0.00 0.00 0.00 63 1019.0
20260902121453 24 0 0.0 0.0 0.00 0.00 0.00 64 1019.0
20260902120954 24 0 0.0 0.0 0.00 0.00 0.00 59 1019.0
20260902120453 24 0 0.0 0.0 0.00 0.00 0.00 63 1019.0
20260902114953 24 0 0.0 0.0 0.00 0.00 0.00 62 1019.1
20260902114453 23 0 0.0 0.0 0.00 0.00 0.00 62 1019.2
20260902113953 23 0 0.0 0.0 0.00 0.00 0.00 64 1019.2
20260902113453 22 0 0.0 0.0 0.00 0.00 0.00 69 1019.2
20260902112954 22 0 0.0 0.0 0.00 0.00 0.00 65 1019.2
20260902112453 23 0 0.0 0.0 0.00 0.00 0.00 64 1019.2
20260902110953 23 0 0.0 0.0 0.00 0.00 0.00 62 1019.3
20260902110453 23 0 0.0 0.0 0.00 0.00 0.00 61 1019.4
20260902105953 23 0 0.0 0.0 0.00 0.00 0.00 66 1019.4
20260902105454 22 0 0.0 0.0 0.00 0.00 0.00 68 1019.4
20260902104954 22 0 0.0 0.0 0.00 0.00 0.00 68 1019.5
20260902104454 21 0 0.0 0.0 0.00 0.00 0.00 72 1019.6
20260902103954 21 0 0.0 0.0 0.00 0.00 0.00 70 1019.6
20260902103454 21 0 0.0 0.0 0.00 0.00 0.00 69 1019.6
20260902102953 22 0 0.0 0.0 0.00 0.00 0.00 69 1019.7
20260902102453 22 0 0.0 0.0 0.00 0.00 0.00 68 1019.6
20260902101954 22 0 0.0 0.0 0.00 0.00 0.00 65 1019.6
20260902101454 23 0 0.0 0.0 0.00 0.00 0.00 64 1019.7
20260902100954 23 0 0.0 0.0 0.00 0.00 0.00 63 1019.7
20260902100454 23 0 0.0 0.0 0.00 0.00 0.00 64 1019.7
20260902095954 22 0 0.0 0.0 0.00 0.00 0.00 67 1019.8
20260902095454 22 0 0.0 0.0 0.00 0.00 0.00 67 1019.8
20260902094954 21 0 0.0 0.0 0.00 0.00 0.00 69 1019.8
20260902093954 22 0 0.0 0.0 0.00 0.00 0.00 66 1019.8
20260902093454 22 0 0.0 0.0 0.00 0.00 0.00 65 1020.0
20260902092954 22 0 0.0 0.0 0.00 0.00 0.00 66 1019.9
20260902092454 22 0 0.0 0.0 0.00 0.00 0.00 65 1020.0
20260902091954 21 0 0.0 0.0 0.00 0.00 0.00 66 1019.9
20260902091453 21 0 0.0 0.0 0.00 0.00 0.00 67 1019.9
20260902090953 21 0 0.0 0.0 0.00 0.00 0.00 67 1020.0
20260902090454 21 0 0.0 0.0 0.00 0.00 0.00 66 1020.0
20260902085954 21 0 0.0 0.0 0.00 0.00 0.00 66 1020.0
20260902085453 21 0 0.0 0.0 0.00 0.00 0.00 65 1019.9
20260902084954 21 0 0.0 0.0 0.00 0.00 0.00 65 1020.0
20260902083954 20 0 0.0 0.0 0.00 0.00 0.00 70 1020.0
20260902083454 21 0 0.0 0.0 0.00 0.00 0.00 64 1020.1
20260902082954 21 0 0.0 0.0 0.00 0.00 0.00 64 1020.1
20260902082454 21 0 0.0 0.0 0.00 0.00 0.00 65 1020.1
20260902081954 21 0 0.0 0.0 0.00 0.00 0.00 65 1020.0
20260902080954 21 0 0.0 0.0 0.00 0.00 0.00 65 1020.1
20260902080456 21 0 0.0 0.0 0.00 0.00 0.00 68 1020.2
20260902075954 20 0 0.0 0.0 0.00 0.00 0.00 71 1020.1
20260902075454 20 0 0.0 0.0 0.00 0.00 0.00 68 1020.1
20260902074954 20 0 0.0 0.0 0.00 0.00 0.00 71 1020.1
20260902073954 19 0 0.0 0.0 0.00 0.00 0.00 74 1020.1
20260902073453 18 0 0.0 0.0 0.00 0.00 0.00 74 1020.1
20260902072954 18 0 0.0 0.0 0.00 0.00 0.00 76 1020.0
20260902072455 18 0 0.0 0.0 0.00 0.00 0.00 76 1020.0
20260902071953 18 0 0.0 0.0 0.00 0.00 0.00 78 1020.0
20260902071454 17 0 0.0 0.0 0.00 0.00 0.00 79 1020.0
20260902065955 17 0 0.0 0.0 0.00 0.00 0.00 82 1019.9
20260902065454 16 0 0.0 0.0 0.00 0.00 0.00 84 1019.9
20260902064954 16 0 0.0 0.0 0.00 0.00 0.00 86 1019.9
20260902064454 15 0 0.0 0.0 0.00 0.00 0.00 89 1019.9
20260902063954 15 0 0.0 0.0 0.00 0.00 0.00 90 1019.9
20260902063454 15 0 0.0 0.0 0.00 0.00 0.00 93 1019.8
20260902062955 14 0 0.0 0.0 0.00 0.00 0.00 94 1019.8
20260902062454 14 0 0.0 0.0 0.00 0.00 0.00 94 1019.8
20260902061954 13 0 0.0 0.0 0.00 0.00 0.00 95 1019.9
20260902061454 13 0 0.0 0.0 0.00 0.00 0.00 95 1019.8
20260902060954 13 0 0.0 0.0 0.00 0.00 0.00 95 1019.8
20260902060454 13 0 0.0 0.0 0.00 0.00 0.00 95 1019.7
20260902055954 12 0 0.0 0.0 0.00 0.00 0.00 95 1019.6
20260902055454 12 0 0.0 0.0 0.00 0.00 0.00 95 1019.6
20260902054954 12 0 0.0 0.0 0.00 0.00 0.00 95 1019.7
20260902054455 12 0 0.0 0.0 0.00 0.00 0.00 95 1019.7
20260902053954 12 0 0.0 0.0 0.00 0.00 0.00 95 1019.7
20260902053454 12 0 0.0 0.0 0.00 0.00 0.00 95 1019.7
20260902052455 11 0 0.0 0.0 0.00 0.00 0.00 95 1019.6
20260902051954 11 0 0.0 0.0 0.00 0.00 0.00 95 1019.6
20260902051454 11 0 0.0 0.0 0.00 0.00 0.00 95 1019.6
20260902050954 11 0 0.0 0.0 0.00 0.00 0.00 95 1019.6
20260902050455 11 0 0.0 0.0 0.00 0.00 0.00 95 1019.6
20260902045955 11 0 0.0 0.0 0.00 0.00 0.00 95 1019.6
20260902045455 10 0 0.0 0.0 0.00 0.00 0.00 95 1019.7
20260902044954 10 0 0.0 0.0 0.00 0.00 0.00 95 1019.6
20260902044455 10 0 0.0 0.0 0.00 0.00 0.00 94 1019.6
20260902043955 10 0 0.0 0.0 0.00 0.00 0.00 95 1019.5
20260902043455 10 0 0.0 0.0 0.00 0.00 0.00 94 1019.5
20260902042955 10 0 0.0 0.0 0.00 0.00 0.00 94 1019.4
20260902042455 10 0 0.0 0.0 0.00 0.00 0.00 94 1019.4
20260902041955 9 0 0.0 0.0 0.00 0.00 0.00 94 1019.5
20260902040955 9 0 0.0 0.0 0.00 0.00 0.00 94 1019.4
20260902040455 9 0 0.0 0.0 0.00 0.00 0.00 94 1019.4
20260902035455 9 0 0.0 0.0 0.00 0.00 0.00 94 1019.4
20260902034954 9 0 0.0 0.0 0.00 0.00 0.00 94 1019.3
20260902034457 10 0 0.0 0.0 0.00 0.00 0.00 94 1019.3
20260902033955 10 0 0.0 0.0 0.00 0.00 0.00 94 1019.3
20260902032956 10 0 0.0 0.0 0.00 0.00 0.00 94 1019.3
20260902032455 10 0 0.0 0.0 0.00 0.00 0.00 94 1019.3
20260902031955 10 0 0.0 0.0 0.00 0.00 0.00 94 1019.2
20260902031455 10 0 0.0 0.0 0.00 0.00 0.00 94 1019.2
20260902030955 10 0 0.0 0.0 0.00 0.00 0.00 94 1019.2
20260902030455 10 0 0.0 0.0 0.00 0.00 0.00 94 1019.3
20260902025955 10 0 0.0 0.0 0.00 0.00 0.00 94 1019.3
20260902024455 10 0 0.0 0.0 0.00 0.00 0.00 94 1019.3
20260902023955 10 0 0.0 0.0 0.00 0.00 0.00 94 1019.3
20260902023455 10 0 0.0 0.0 0.00 0.00 0.00 94 1019.3
20260902022455 10 0 0.0 0.0 0.00 0.00 0.00 94 1019.3
20260902021955 10 0 0.0 0.0 0.00 0.00 0.00 94 1019.3
20260902020955 10 0 0.0 0.0 0.00 0.00 0.00 94 1019.3
20260902015455 10 0 0.0 0.0 0.00 0.00 0.00 94 1019.5
20260902013955 10 0 0.0 0.0 0.00 0.00 0.00 94 1019.5
20260902013455 10 0 0.0 0.0 0.00 0.00 0.00 94 1019.4
20260902012455 10 0 0.0 0.0 0.00 0.00 0.00 94 1019.5
20260902011455 10 0 0.0 0.0 0.00 0.00 0.00 94 1019.5
20260902010955 10 0 0.0 0.0 0.00 0.00 0.00 94 1019.4
20260902010455 10 0 0.0 0.0 0.00 0.00 0.00 94 1019.3
20260902005957 10 0 0.0 0.0 0.00 0.00 0.00 94 1019.3
20260902005455 10 0 0.0 0.0 0.00 0.00 0.00 94 1019.3
20260902004455 10 0 0.0 0.0 0.00 0.00 0.00 94 1019.3
20260902003957 10 0 0.0 0.0 0.00 0.00 0.00 94 1019.3
20260902002955 10 0 0.0 0.0 0.00 0.00 0.00 94 1019.4
20260902002456 10 0 0.0 0.0 0.00 0.00 0.00 94 1019.4
20260902001955 10 0 0.0 0.0 0.00 0.00 0.00 94 1019.3
20260902000955 11 0 0.0 0.0 0.00 0.00 0.00 94 1019.3
20260902000455 11 0 0.0 0.0 0.00 0.00 0.00 93 1019.4
20260901235955 11 0 0.0 0.0 0.00 0.00 0.00 93 1019.4
20260901235455 11 0 0.0 0.0 0.00 0.00 0.00 93 1019.4
20260901234955 11 0 0.0 0.0 0.00 0.00 0.00 93 1019.4
20260901234455 11 0 0.0 0.0 0.00 0.00 0.00 93 1019.4
20260901233956 11 0 0.0 0.0 0.00 0.00 0.00 93 1019.3
20260901232956 11 0 0.0 0.0 0.00 0.00 0.00 94 1019.4
20260901232456 11 0 0.0 0.0 0.00 0.00 0.00 93 1019.3
20260901231955 11 0 0.0 0.0 0.00 0.00 0.00 93 1019.3
20260901231455 11 0 0.0 0.0 0.00 0.00 0.00 93 1019.3
20260901230955 11 0 0.0 0.0 0.00 0.00 0.00 93 1019.3
20260901225955 11 0 0.0 0.0 0.00 0.00 0.00 93 1019.2
20260901224457 11 0 0.0 0.0 0.00 0.00 0.00 93 1019.2
20260901223456 11 0 0.0 0.0 0.00 0.00 0.00 93 1019.3
20260901222957 11 0 0.0 0.0 0.00 0.00 0.00 93 1019.3
20260901222456 11 0 0.0 0.0 0.00 0.00 0.00 93 1019.3
20260901221956 11 0 0.0 0.0 0.00 0.00 0.00 93 1019.2
20260901220956 11 0 0.0 0.0 0.00 0.00 0.00 93 1019.2
20260901220456 11 0 0.0 0.0 0.00 0.00 0.00 93 1019.2
20260901215958 11 0 0.0 0.0 0.00 0.00 0.00 93 1019.1
20260901215456 11 0 0.0 0.0 0.00 0.00 0.00 93 1019.1
20260901214956 11 0 0.0 0.0 0.00 0.00 0.00 93 1019.1
20260901213956 11 0 0.0 0.0 0.00 0.00 0.00 92 1019.0
20260901213456 11 0 0.0 0.0 0.00 0.00 0.00 92 1019.1
20260901212958 12 0 0.0 0.0 0.00 0.00 0.00 92 1019.1
20260901212456 12 0 0.0 0.0 0.00 0.00 0.00 92 1019.1
20260901211956 12 0 0.0 0.0 0.00 0.00 0.00 92 1019.1
20260901211458 12 0 0.0 0.0 0.00 0.00 0.00 92 1019.2
20260901210956 12 0 0.0 0.0 0.00 0.00 0.00 92 1019.2
20260901210456 12 0 0.0 0.0 0.00 0.00 0.00 92 1019.2
20260901205956 12 0 0.0 0.0 0.00 0.00 0.00 92 1019.2
20260901205457 12 0 0.0 0.0 0.00 0.00 0.00 92 1019.3
20260901204956 12 0 0.0 0.0 0.00 0.00 0.00 92 1019.2